Weather History for Beach, ND

Change the Weather History Date:

Tuesday, October 9, 2012

  Actual Average (KGDV) Record (KGDV)
Temperature  
Mean Temperature 35 °F -  
Max Temperature 44 °F 59 °F 82 °F (2004)
Min Temperature 26 °F 34 °F 24 °F (2008)
Degree Days  
Heating Degree Days 30    
Moisture  
Dew Point 22 °F    
Average Humidity 60    
Maximum Humidity 93    
Minimum Humidity 29    
Precipitation  
Precipitation 0.00 in - - ()
Sea Level Pressure  
Sea Level Pressure 30.04 in    
Wind  
Wind Speed 13 mph (WNW)    
Max Wind Speed 23 mph    
Max Gust Speed 31 mph    
Visibility 10 miles    
Events      
Averages and records for this station are not official NWS values.
T = Trace of Precipitation, MM = Missing Value Source: NWS Daily Summary

Daily Weather History Graph

Daily Weather History Graph

Search for Another Location

Airport:

Trip Planner

Search our weather history database for the weather conditions in past years. The results will help you decide how hot, cold, wet, or windy it might be!

Date:

Astronomy

Oct. 09, 2012 Rise Set
Actual Time 7:06 AM MDT 6:18 PM MDT
Civil Twilight 6:35 AM MDT 6:49 PM MDT
Nautical Twilight 6:00 AM MDT 7:24 PM MDT
Astronomical Twilight 5:25 AM MDT 7:59 PM MDT
Moon 12:23 AM MDT (10/9) 3:07 PM MDT (10/9)
Length of Visible Light 12h 13m
Length of Day
11h 12m
Last Quarter, 36% of the Moon is Illuminated
Oct 9
Last Quarter
Oct 15
New
Oct 21
First Quarter
Oct 29
Full
Nov 6
Last Quarter

Hourly Weather History & Observations

Time (MDT) Temp. Windchill Dew Point Humidity Pressure Visibility Wind Dir Wind Speed Gust Speed Precip Events Conditions
12:15 AM 35.6 °F 27.1 °F 23.0 °F 60% 29.93 in 10.0 mi NW 12.7 mph - N/A   Scattered Clouds
12:35 AM 35.6 °F 27.5 °F 23.0 °F 60% 29.93 in 10.0 mi NW 11.5 mph - N/A   Scattered Clouds
12:55 AM 35.6 °F 27.1 °F 23.0 °F 60% 29.94 in 10.0 mi WNW 12.7 mph - N/A   Overcast
1:15 AM 35.6 °F 27.1 °F 23.0 °F 60% 29.94 in 10.0 mi WNW 12.7 mph - N/A   Overcast
1:35 AM 35.6 °F 26.6 °F 24.8 °F 65% 29.95 in 10.0 mi WNW 13.8 mph - N/A   Overcast
2:15 AM 35.6 °F 25.9 °F 24.8 °F 65% 29.96 in 10.0 mi WNW 16.1 mph 23.0 mph N/A   Overcast
2:35 AM 35.6 °F 25.5 °F 24.8 °F 65% 29.95 in 10.0 mi WNW 17.3 mph 21.9 mph N/A   Overcast
2:55 AM 35.6 °F 26.6 °F 26.6 °F 70% 29.96 in 10.0 mi NW 13.8 mph 23.0 mph N/A   Overcast
3:15 AM 35.6 °F 25.9 °F 26.6 °F 70% 29.97 in 10.0 mi NW 16.1 mph 21.9 mph N/A   Mostly Cloudy
3:35 AM 33.8 °F 23.5 °F 26.6 °F 75% 29.97 in 10.0 mi NW 16.1 mph 23.0 mph N/A   Overcast
3:55 AM 32.0 °F 22.1 °F 26.6 °F 80% 29.98 in 10.0 mi NW 13.8 mph 20.7 mph N/A   Mostly Cloudy
4:15 AM 32.0 °F 22.1 °F 26.6 °F 80% 29.98 in 10.0 mi NW 13.8 mph - N/A   Partly Cloudy
4:35 AM 32.0 °F 23.0 °F 26.6 °F 80% 29.99 in 10.0 mi NW 11.5 mph - N/A   Partly Cloudy
5:15 AM 30.2 °F 19.8 °F 26.6 °F 86% 29.99 in 10.0 mi NW 13.8 mph 19.6 mph N/A   Clear
5:35 AM 28.4 °F 18.0 °F 24.8 °F 86% 30.00 in 10.0 mi WNW 12.7 mph - N/A   Clear
5:55 AM 28.4 °F 18.5 °F 24.8 °F 86% 30.01 in 10.0 mi WNW 11.5 mph - N/A   Clear
6:15 AM 26.6 °F 17.5 °F 24.8 °F 93% 30.01 in 10.0 mi WNW 9.2 mph - N/A   Clear
6:35 AM 26.6 °F 17.5 °F 24.8 °F 93% 30.02 in 10.0 mi WNW 9.2 mph - N/A   Clear
6:55 AM 26.6 °F 16.2 °F 24.8 °F 93% 30.02 in 10.0 mi WNW 11.5 mph - N/A   Scattered Clouds
7:15 AM 26.6 °F 17.5 °F 24.8 °F 93% 30.03 in 10.0 mi NW 9.2 mph - N/A   Scattered Clouds
7:35 AM 26.6 °F 18.2 °F 24.8 °F 93% 30.04 in 10.0 mi NW 8.1 mph - N/A   Scattered Clouds
7:55 AM 28.4 °F 19.1 °F 24.8 °F 86% 30.04 in 10.0 mi NW 10.4 mph - N/A   Scattered Clouds
8:15 AM 32.0 °F 22.1 °F 26.6 °F 80% 30.04 in 10.0 mi WNW 13.8 mph - N/A   Mostly Cloudy
8:35 AM 32.0 °F 21.2 °F 26.6 °F 80% 30.05 in 10.0 mi WNW 16.1 mph - N/A   Overcast
8:55 AM 32.0 °F 22.5 °F 26.6 °F 80% 30.05 in 10.0 mi WNW 12.7 mph - N/A   Overcast
9:15 AM 32.0 °F 21.6 °F 26.6 °F 80% 30.06 in 10.0 mi WNW 15.0 mph - N/A   Overcast
9:35 AM 32.0 °F 21.6 °F 26.6 °F 80% 30.06 in 10.0 mi WNW 15.0 mph - N/A   Overcast
9:55 AM 33.8 °F 23.5 °F 26.6 °F 75% 30.07 in 10.0 mi NW 16.1 mph 20.7 mph N/A   Overcast
10:15 AM 35.6 °F 25.9 °F 26.6 °F 70% 30.07 in 10.0 mi NW 16.1 mph 19.6 mph N/A   Mostly Cloudy
10:35 AM 37.4 °F 28.9 °F 26.6 °F 65% 30.07 in 10.0 mi NW 13.8 mph 23.0 mph N/A   Overcast
10:55 AM 39.2 °F 31.2 °F 26.6 °F 61% 30.08 in 10.0 mi NW 13.8 mph 23.0 mph N/A   Overcast
11:15 AM 39.2 °F 29.8 °F 24.8 °F 56% 30.08 in 10.0 mi WNW 18.4 mph 25.3 mph N/A   Overcast
11:35 AM 39.2 °F 30.2 °F 24.8 °F 56% 30.07 in 10.0 mi NW 17.3 mph 23.0 mph N/A   Mostly Cloudy
11:55 AM 39.2 °F 28.7 °F 23.0 °F 52% 30.07 in 10.0 mi WNW 23.0 mph 26.5 mph N/A   Mostly Cloudy
12:15 PM 39.2 °F 29.8 °F 23.0 °F 52% 30.07 in 10.0 mi NW 18.4 mph - N/A   Overcast
12:35 PM 39.2 °F 30.8 °F 19.4 °F 45% 30.07 in 10.0 mi NW 15.0 mph 24.2 mph N/A   Overcast
12:55 PM 39.2 °F 30.5 °F 19.4 °F 45% 30.07 in 10.0 mi NW 16.1 mph 23.0 mph N/A   Overcast
1:15 PM 41.0 °F 33.1 °F 19.4 °F 42% 30.07 in 10.0 mi NW 15.0 mph 23.0 mph N/A   Overcast
1:35 PM 41.0 °F 31.9 °F 17.6 °F 39% 30.06 in 10.0 mi WNW 19.6 mph 27.6 mph N/A   Overcast
1:55 PM 41.0 °F 31.4 °F 17.6 °F 39% 30.06 in 10.0 mi NW 21.9 mph 25.3 mph N/A   Overcast
2:15 PM 41.0 °F 32.2 °F 15.8 °F 36% 30.06 in 10.0 mi NW 18.4 mph 25.3 mph N/A   Mostly Cloudy
2:35 PM 44.6 °F 37.2 °F 17.6 °F 34% 30.05 in 10.0 mi WNW 17.3 mph 26.5 mph N/A   Mostly Cloudy
2:55 PM 44.6 °F 36.9 °F 17.6 °F 34% 30.05 in 10.0 mi WNW 18.4 mph 27.6 mph N/A   Mostly Cloudy
3:15 PM 42.8 °F 34.5 °F 17.6 °F 36% 30.05 in 10.0 mi NNW 18.4 mph 25.3 mph N/A   Mostly Cloudy
3:35 PM 44.6 °F 36.4 °F 15.8 °F 31% 30.05 in 10.0 mi WNW 20.7 mph 31.1 mph N/A   Scattered Clouds
3:55 PM 44.6 °F 37.2 °F 14.0 °F 29% 30.05 in 10.0 mi WNW 17.3 mph 26.5 mph N/A   Mostly Cloudy
4:15 PM 44.6 °F 36.6 °F 15.8 °F 31% 30.05 in 10.0 mi NW 19.6 mph 24.2 mph N/A   Scattered Clouds
4:55 PM 42.8 °F 36.2 °F 15.8 °F 34% 30.05 in 10.0 mi WNW 12.7 mph - N/A   Partly Cloudy
5:15 PM 42.8 °F 36.6 °F 15.8 °F 34% 30.05 in 10.0 mi NW 11.5 mph 18.4 mph N/A   Partly Cloudy
5:35 PM 41.0 °F 32.5 °F 15.8 °F 36% 30.05 in 10.0 mi NW 17.3 mph - N/A   Clear
5:55 PM 41.0 °F 34.7 °F 15.8 °F 36% 30.06 in 10.0 mi NW 10.4 mph 19.6 mph N/A   Clear
6:15 PM 39.2 °F 33.6 °F 15.8 °F 39% 30.06 in 10.0 mi WNW 8.1 mph - N/A   Clear
6:35 PM 33.8 °F 27.0 °F 15.8 °F 48% 30.06 in 10.0 mi WNW 8.1 mph - N/A   Clear
6:55 PM 32.0 °F 26.4 °F 15.8 °F 51% 30.06 in 10.0 mi WNW 5.8 mph - N/A   Clear
7:15 PM 32.0 °F 24.8 °F 17.6 °F 55% 30.06 in 10.0 mi West 8.1 mph - N/A   Clear
7:35 PM 32.0 °F 24.8 °F 17.6 °F 55% 30.06 in 10.0 mi West 8.1 mph - N/A   Clear
7:55 PM 32.0 °F 24.2 °F 17.6 °F 55% 30.06 in 10.0 mi West 9.2 mph - N/A   Clear
8:15 PM 32.0 °F 23.6 °F 17.6 °F 55% 30.06 in 10.0 mi WSW 10.4 mph - N/A   Clear
8:35 PM 32.0 °F 23.0 °F 19.4 °F 60% 30.06 in 10.0 mi West 11.5 mph - N/A   Clear
8:55 PM 32.0 °F 23.6 °F 19.4 °F 60% 30.07 in 10.0 mi West 10.4 mph - N/A   Clear
9:15 PM 32.0 °F 23.6 °F 19.4 °F 60% 30.06 in 10.0 mi WSW 10.4 mph - N/A   Partly Cloudy
9:35 PM 32.0 °F 24.8 °F 19.4 °F 60% 30.06 in 10.0 mi West 8.1 mph - N/A   Mostly Cloudy
9:55 PM 32.0 °F 24.8 °F 19.4 °F 60% 30.06 in 10.0 mi West 8.1 mph - N/A   Overcast
10:15 PM 35.6 °F 29.9 °F 21.2 °F 56% 30.06 in 10.0 mi WSW 6.9 mph - N/A   Overcast
10:35 PM 35.6 °F 28.6 °F 21.2 °F 56% 30.06 in 10.0 mi WSW 9.2 mph - N/A   Overcast
10:55 PM 35.6 °F 28.6 °F 23.0 °F 60% 30.06 in 10.0 mi WSW 9.2 mph - N/A   Overcast
11:15 PM 35.6 °F 28.6 °F 23.0 °F 60% 30.06 in 10.0 mi WSW 9.2 mph - N/A   Overcast
11:35 PM 37.4 °F 30.8 °F 23.0 °F 56% 30.06 in 10.0 mi West 9.2 mph - N/A   Overcast
11:55 PM 37.4 °F 31.4 °F 23.0 °F 56% 30.05 in 10.0 mi West 8.1 mph - N/A   Overcast